DUMMY MASS 2

导读

DUMMY MASS 2是中国于1997年9月1日8时发射的一颗卫星,从命名来看,“DUMMY MASS”意为模拟质量,推测该卫星可能是作为配重试验载荷,用于验证运载火箭发射的质量模拟、轨道分配等相关技术。它是中国航天探索历程中一次常规发射任务的组成部分,为后续中国航天工程的技术积累与发射流程优化提供了实践参考,见证了中国航天稳步推进的发展脚步。

Basic Information
目录编号:
24926
目录名称:
DUMMY MASS 2
国际标识:
1997-048B
轨道中心:
EARTH
卫星名称:
DUMMY MASS 2
卫星全名:
--
卫星状态:
在轨 (已飞行10606 天)
发射日期:
1997-09-01 UTC
国别 :
中国 (CN)
星等 :
--
This satellite is enrolled in the Space Conjunction Data Service (SCDS) and the current flight risk assessment level is: No High Risk
Orbit Information
数据来源 国际轨道数据 AOE轨道数据
星历时间 2026-09-15T16:47:20+0800
14小时前
查看轨道信息
2026-09-15T23:00:00+0800
7小时前
查看轨道信息
半长轴 6985.017km 6985.015km
偏心率 0.000709 0.0007077
轨道倾角 86.330° 86.331°
近地点辐角 3.547° 4.316°
升交点赤经 286.377° 286.259°
平近点角 356.580° 300.408°
近地点 601.927km 601.934km
远地点 611.833km 611.822km
周期 96.830分钟 96.830分钟
每日圈数 14.871392 14.871398
Detailed Information
使用方式:
暂无
2D Orbit Map
3D Orbit Map
Orbit Altitude Analysis Chart
Orbit Inclination Analysis Chart
Orbit Comprehensive Analysis Chart
View Comprehensive Chart
Conjunction Data List
Event ID Objects TCA Miss Dist (km) Collision Risk Probability Collision Risk Index (CRI) Action
CDM_260917-125402-492602-849424
ESSAIM-1 (28494)
2026-09-17T
12:54:59+0000
0.630 km
远距离
1.143642E-4 高风险 0.76
Miss Distance Evolution Trend with All Objects Subscribe to Flight Safety Assessment
Collision Probability Evolution Trend with All Objects Subscribe to Flight Safety Assessment